Baker, MT

1:36 PM MDT on May 25, 2018 (GMT -0600)
Baker Municipal

Weather History for KBHK - May, 2013

Change the Weather History Date:

Friday, May 31, 2013

  Actual Average Record
Temperature  
Mean Temperature 48 °F -  
Max Temperature 51 °F 67 °F 81 °F (2002)
Min Temperature 46 °F 46 °F 37 °F (2017)
Degree Days  
Heating Degree Days 16    
Moisture  
Dew Point 45 °F    
Average Humidity 86    
Maximum Humidity 93    
Minimum Humidity 74    
Precipitation  
Precipitation 0.76 in - - ()
Sea Level Pressure  
Sea Level Pressure 29.68 in    
Wind  
Wind Speed 19 mph (NNW)    
Max Wind Speed 26 mph    
Max Gust Speed 34 mph    
Visibility 5 miles    
Events Rain    
Averages and records for this station are not official NWS values.
T = Trace of Precipitation, MM = Missing Value Source: NWS Daily Summary

Daily Weather History Graph

Daily Weather History Graph

Search for Another Location

Airport or City:

Astronomy

May. 31, 2013 Rise Set
Actual Time 5:08 AM MDT 8:41 PM MDT
Civil Twilight 4:31 AM MDT 9:18 PM MDT
Nautical Twilight 3:41 AM MDT 10:09 PM MDT
Astronomical Twilight 2:35 AM MDT 11:15 PM MDT
Moon 1:00 AM MDT (5/31) 12:45 PM MDT (5/31)
Length of Visible Light 16h 47m
Length of Day
15h 32m
Waning Gibbous, 51% of the Moon is Illuminated
May 31
Waning Gibbous
May 31
Last Quarter
Jun 8
New
Jun 16
First Quarter
Jun 23
Full

Hourly Weather History & Observations

Time (MDT) Temp. Windchill Dew Point Humidity Pressure Visibility Wind Dir Wind Speed Gust Speed Precip Events Conditions
12:08 AM 50.0 °F - 46.4 °F 87% 29.49 in 4.0 mi NW 19.6 mph 27.6 mph 0.00 in Rain Light Rain
12:51 AM 50.0 °F - 46.0 °F 86% 29.47 in 6.0 mi WNW 19.6 mph 24.2 mph 0.01 in Rain Light Rain
1:02 AM 50.0 °F - 46.4 °F 87% 29.48 in 5.0 mi WNW 19.6 mph 27.6 mph 0.00 in   Overcast
1:10 AM 48.2 °F - 46.4 °F 93% 29.48 in 6.0 mi WNW 17.3 mph 27.6 mph 0.00 in   Overcast
1:51 AM 48.9 °F - 46.0 °F 90% 29.47 in 5.0 mi NW 24.2 mph 29.9 mph 0.00 in   Overcast
1:56 AM 48.2 °F - 46.4 °F 93% 29.48 in 4.0 mi WNW 17.3 mph 29.9 mph N/A   Overcast
2:51 AM 48.9 °F - 45.0 °F 86% 29.47 in 6.0 mi WNW 16.1 mph 26.5 mph 0.00 in   Overcast
3:13 AM 48.2 °F - 44.6 °F 87% 29.48 in 2.5 mi WNW 19.6 mph 26.5 mph N/A   Overcast
3:31 AM 48.2 °F - 44.6 °F 87% 29.48 in 3.0 mi WNW 17.3 mph 26.5 mph 0.00 in Rain Light Rain
3:48 AM 48.2 °F - 44.6 °F 87% 29.48 in 2.5 mi WNW 19.6 mph 26.5 mph 0.00 in Rain Light Rain
3:51 AM 48.0 °F - 45.0 °F 89% 29.47 in 2.5 mi WNW 20.7 mph 26.5 mph 0.01 in Rain Light Rain
4:08 AM 48.2 °F - 44.6 °F 87% 29.48 in 1.8 mi WNW 21.9 mph 27.6 mph 0.10 in Rain Heavy Rain
4:14 AM 48.2 °F - 44.6 °F 87% 29.48 in 2.0 mi WNW 19.6 mph 27.6 mph 0.13 in Rain Heavy Rain
4:23 AM 48.2 °F - 44.6 °F 87% 29.48 in 3.0 mi WNW 20.7 mph - 0.13 in Rain Light Rain
4:33 AM 48.2 °F - 44.6 °F 87% 29.48 in 2.5 mi WNW 18.4 mph 27.6 mph 0.14 in Rain Light Rain
4:51 AM 48.9 °F - 45.0 °F 86% 29.48 in 2.0 mi WNW 17.3 mph - 0.15 in Rain Light Rain
5:15 AM 48.2 °F - 46.4 °F 93% 29.49 in 3.0 mi WNW 15.0 mph 24.2 mph 0.01 in Rain Light Rain
5:51 AM 48.9 °F - 46.0 °F 90% 29.49 in 4.0 mi WNW 17.3 mph 24.2 mph 0.05 in Rain Light Rain
6:10 AM 48.2 °F - 46.4 °F 93% 29.50 in 2.5 mi WNW 17.3 mph 23.0 mph 0.01 in Rain Light Rain
6:51 AM 48.9 °F - 46.0 °F 90% 29.50 in 1.8 mi WNW 18.4 mph 25.3 mph 0.06 in Rain Rain
7:32 AM 50.0 °F - 46.4 °F 87% 29.52 in 2.0 mi WNW 15.0 mph 25.3 mph 0.07 in Rain Light Rain
7:51 AM 50.0 °F - 46.9 °F 89% 29.51 in 3.0 mi WNW 17.3 mph 24.2 mph 0.08 in Rain Light Rain
8:19 AM 51.8 °F - 46.4 °F 82% 29.53 in 2.0 mi NW 16.1 mph 24.2 mph 0.01 in Rain Light Rain
8:25 AM 50.0 °F - 46.4 °F 87% 29.53 in 1.5 mi WNW 16.1 mph 24.2 mph 0.01 in Rain Light Rain
8:51 AM 51.1 °F - 46.9 °F 86% 29.53 in 2.5 mi NW 18.4 mph 25.3 mph 0.02 in Rain Light Rain
8:58 AM 51.8 °F - 46.4 °F 82% 29.54 in 3.0 mi NW 19.6 mph 26.5 mph 0.00 in Rain Light Rain
9:27 AM 51.8 °F - 46.4 °F 82% 29.55 in 2.5 mi NW 20.7 mph 29.9 mph 0.02 in Rain Light Rain
9:33 AM 51.8 °F - 46.4 °F 82% 29.55 in 2.5 mi NW 23.0 mph 29.9 mph 0.03 in Rain Light Rain
9:51 AM 51.1 °F - 46.9 °F 86% 29.55 in 2.5 mi NW 24.2 mph 29.9 mph 0.05 in Rain Rain
10:03 AM 51.8 °F - 46.4 °F 82% 29.56 in 3.0 mi NW 24.2 mph 29.9 mph 0.01 in Rain Light Rain
10:26 AM 50.0 °F - 46.4 °F 87% 29.58 in 7.0 mi NW 20.7 mph 31.1 mph 0.02 in Rain Light Rain
10:46 AM 50.0 °F - 46.4 °F 87% 29.58 in 6.0 mi NW 25.3 mph 32.2 mph 0.04 in Rain Light Rain
10:51 AM 51.1 °F - 46.9 °F 86% 29.58 in 7.0 mi NW 19.6 mph 32.2 mph 0.04 in Rain Light Rain
10:59 AM 51.8 °F - 46.4 °F 82% 29.59 in 6.0 mi NW 20.7 mph 27.6 mph 0.00 in Rain Light Rain
11:19 AM 51.8 °F - 46.4 °F 82% 29.60 in 10.0 mi NW 26.5 mph 34.5 mph 0.01 in Rain Light Rain
11:51 AM 51.1 °F - 46.0 °F 83% 29.61 in 6.0 mi NNW 26.5 mph 34.5 mph 0.01 in Rain Light Rain
12:02 PM 50.0 °F - 46.4 °F 87% 29.62 in 2.5 mi NW 24.2 mph 32.2 mph 0.02 in Rain Light Rain
12:12 PM 50.0 °F - 46.4 °F 87% 29.63 in 5.0 mi NNW 24.2 mph 33.4 mph 0.02 in Rain Light Rain
12:24 PM 50.0 °F - 46.4 °F 87% 29.64 in 3.0 mi NNW 24.2 mph 32.2 mph 0.03 in Rain Light Rain
12:33 PM 50.0 °F - 46.4 °F 87% 29.64 in 4.0 mi NNW 21.9 mph - 0.04 in Rain Light Rain
12:51 PM 51.1 °F - 46.0 °F 83% 29.64 in 7.0 mi NNW 21.9 mph 29.9 mph 0.04 in Rain Light Rain
1:12 PM 50.0 °F - 46.4 °F 87% 29.66 in 6.0 mi NNW 20.7 mph 28.8 mph 0.02 in Rain Light Rain
1:17 PM 50.0 °F - 46.4 °F 87% 29.66 in 5.0 mi NNW 20.7 mph 29.9 mph 0.02 in Rain Light Rain
1:39 PM 50.0 °F - 44.6 °F 82% 29.67 in 6.0 mi NNW 21.9 mph 28.8 mph 0.05 in Rain Light Rain
1:51 PM 50.0 °F - 46.0 °F 86% 29.68 in 5.0 mi NNW 21.9 mph 27.6 mph 0.06 in Rain Light Rain
1:57 PM 50.0 °F - 46.4 °F 87% 29.68 in 6.0 mi NNW 20.7 mph - 0.01 in Rain Light Rain
2:02 PM 50.0 °F - 44.6 °F 82% 29.69 in 6.0 mi NNW 21.9 mph 28.8 mph 0.01 in Rain Light Rain
2:07 PM 50.0 °F - 46.4 °F 87% 29.69 in 5.0 mi NNW 20.7 mph 28.8 mph 0.01 in Rain Light Rain
2:35 PM 48.2 °F - 44.6 °F 87% 29.71 in 4.0 mi NNW 19.6 mph 27.6 mph 0.03 in Rain Light Rain
2:40 PM 48.2 °F - 44.6 °F 87% 29.71 in 4.0 mi North 16.1 mph 25.3 mph 0.04 in Rain Light Rain
2:51 PM 48.9 °F - 45.0 °F 86% 29.73 in 5.0 mi NNW 16.1 mph 26.5 mph 0.05 in Rain Light Rain
3:04 PM 48.2 °F - 44.6 °F 87% 29.72 in 6.0 mi NNW 19.6 mph - 0.01 in Rain Light Rain
3:44 PM 48.2 °F - 44.6 °F 87% 29.74 in 7.0 mi North 17.3 mph - 0.06 in Rain Light Rain
3:51 PM 48.9 °F - 44.1 °F 83% 29.75 in 5.0 mi NNW 18.4 mph - 0.07 in Rain Rain
4:42 PM 48.2 °F - 44.6 °F 87% 29.77 in 7.0 mi North 13.8 mph - 0.02 in Rain Light Rain
4:51 PM 48.9 °F - 44.1 °F 83% 29.78 in 6.0 mi North 19.6 mph 23.0 mph 0.03 in Rain Light Rain
5:04 PM 48.2 °F - 44.6 °F 87% 29.78 in 10.0 mi North 16.1 mph - 0.00 in Rain Light Rain
5:51 PM 48.9 °F - 45.0 °F 86% 29.82 in 4.0 mi North 13.8 mph 25.3 mph 0.00 in Rain Light Rain
5:56 PM 50.0 °F - 44.6 °F 82% 29.81 in 8.0 mi North 18.4 mph 21.9 mph 0.00 in   Overcast
6:00 PM 48.2 °F - 44.6 °F 87% 29.82 in 7.0 mi North 17.3 mph 21.9 mph 0.00 in Rain Light Rain
6:05 PM 48.2 °F - 44.6 °F 87% 29.82 in 5.0 mi North 17.3 mph 24.2 mph 0.00 in Rain Light Rain
6:24 PM 48.2 °F - 44.6 °F 87% 29.83 in 6.0 mi North 18.4 mph 28.8 mph 0.01 in Rain Light Rain
6:51 PM 48.9 °F - 44.1 °F 83% 29.86 in 5.0 mi North 19.6 mph 28.8 mph 0.01 in Rain Light Rain
7:12 PM 48.2 °F - 44.6 °F 87% 29.87 in 6.0 mi North 20.7 mph 28.8 mph 0.00 in Rain Light Rain
7:14 PM 48.2 °F - 42.8 °F 82% 29.87 in 7.0 mi North 21.9 mph 28.8 mph 0.00 in   Overcast
7:28 PM 48.2 °F - 42.8 °F 82% 29.88 in 10.0 mi North 19.6 mph 29.9 mph 0.00 in   Overcast
7:37 PM 48.2 °F - 44.6 °F 87% 29.88 in 2.5 mi North 16.1 mph - 0.01 in Rain Light Rain
7:42 PM 48.2 °F - 44.6 °F 87% 29.89 in 2.5 mi North 11.5 mph 21.9 mph 0.01 in Rain Light Rain
7:45 PM 48.2 °F - 44.6 °F 87% 29.89 in 3.0 mi North 13.8 mph - 0.01 in Rain Light Rain
7:51 PM 48.0 °F - 44.1 °F 86% 29.90 in 4.0 mi North 17.3 mph - 0.01 in Rain Light Rain
8:12 PM 48.2 °F - 42.8 °F 82% 29.91 in 10.0 mi North 21.9 mph 28.8 mph 0.00 in   Overcast
8:29 PM 48.2 °F - 42.8 °F 82% 29.92 in 10.0 mi North 19.6 mph 26.5 mph 0.00 in   Overcast
8:49 PM 46.4 °F 39.5 °F 42.8 °F 87% 29.94 in 5.0 mi NNW 17.3 mph 23.0 mph 0.00 in Rain Light Rain
8:51 PM 46.9 °F - 43.0 °F 86% 29.95 in 5.0 mi North 15.0 mph 23.0 mph 0.00 in Rain Light Rain
9:51 PM 46.9 °F - 42.1 °F 83% 29.99 in 6.0 mi North 18.4 mph 29.9 mph 0.01 in Rain Light Rain
9:57 PM 46.4 °F 38.3 °F 42.8 °F 87% 29.98 in 7.0 mi North 23.0 mph 33.4 mph 0.00 in Rain Light Rain
10:38 PM 46.4 °F 39.0 °F 42.8 °F 87% 30.01 in 6.0 mi NNW 19.6 mph 27.6 mph 0.00 in Rain Light Rain
10:51 PM 46.9 °F - 42.1 °F 83% 30.03 in 8.0 mi NNW 19.6 mph 26.5 mph 0.00 in Rain Light Rain
11:10 PM 46.4 °F 39.8 °F 41.0 °F 81% 30.02 in 10.0 mi North 16.1 mph 28.8 mph 0.00 in Rain Light Rain
11:51 PM 46.9 °F - 39.0 °F 74% 30.06 in 10.0 mi NNW 12.7 mph 24.2 mph 0.00 in   Overcast